When you browse on this site, cookies collect data to enhance your experience and personalize the content and advertising you see.
Visit our Privacy Policy to learn more. By continuing to use the site, you agree to this use of cookies and data.
  • In United Kingdom
  • List of Countries
  • For 7 days
  • Water Temperature
  • Satellite Maps
  • Weather Map
  • Weather Widgets
  • user-avatar
    Login

    Hourly Weather Armagh

    Today, 26 June, Wednesday

    Time Temperature Precipitation Wind Pressure Humidity
    00:00 +13°C° 0 mm 2 mps 765 mmHg 95%
    01:00 +12°C° 0 mm 2 mps 765 mmHg 96%
    02:00 +12°C° 0 mm 2 mps 766 mmHg 96%
    03:00 +10°C° 0 mm 2 mps 766 mmHg 97%
    04:00 +12°C° 0 mm 2 mps 766 mmHg 95%
    05:00 +12°C° 0 mm 2 mps 766 mmHg 94%
    06:00 +13°C° 0 mm 2 mps 767 mmHg 93%
    07:00 +14°C° 0 mm 2 mps 767 mmHg 89%
    08:00 +16°C° 0 mm 2 mps 767 mmHg 86%
    09:00 +17°C° 0 mm 2 mps 768 mmHg 82%
    10:00 +18°C° 0 mm 3 mps 768 mmHg 80%
    11:00 +19°C° 0 mm 3 mps 768 mmHg 77%
    12:00 +20°C° 0 mm 3 mps 769 mmHg 75%
    13:00 +20°C° 0.1 mm 3 mps 769 mmHg 75%
    14:00 +20°C° 0.1 mm 3 mps 768 mmHg 75%
    15:00 +20°C° 0.1 mm 3 mps 768 mmHg 75%
    16:00 +19°C° 0 mm 3 mps 768 mmHg 75%
    17:00 +19°C° 0 mm 4 mps 768 mmHg 75%
    18:00 +18°C° 0 mm 4 mps 768 mmHg 75%
    19:00 +15°C° 0 mm 4 mps 768 mmHg 79%
    20:00 +13°C° 0 mm 3 mps 768 mmHg 83%
    21:00 +11°C° 0 mm 3 mps 769 mmHg 86%
    22:00 +10°C° 0 mm 3 mps 769 mmHg 89%
    23:00 +9°C° 0 mm 2 mps 769 mmHg 92%

    Tomorrow, 27 June, Thursday

    Time Temperature Precipitation Wind Pressure Humidity
    00:00 +9°C° 0 mm 2 mps 769 mmHg 94%
    01:00 +9°C° 0 mm 2 mps 769 mmHg 94%
    02:00 +9°C° 0 mm 2 mps 769 mmHg 94%
    03:00 +9°C° 0 mm 2 mps 769 mmHg 94%
    04:00 +10°C° 0 mm 2 mps 768 mmHg 92%
    05:00 +10°C° 0 mm 2 mps 768 mmHg 91%
    06:00 +12°C° 0 mm 2 mps 768 mmHg 90%
    07:00 +14°C° 0 mm 2 mps 768 mmHg 87%
    08:00 +16°C° 0 mm 3 mps 768 mmHg 84%
    09:00 +18°C° 0 mm 3 mps 768 mmHg 81%
    10:00 +19°C° 0 mm 3 mps 768 mmHg 77%
    11:00 +20°C° 0 mm 3 mps 768 mmHg 72%
    12:00 +21°C° 0 mm 3 mps 768 mmHg 68%
    13:00 +21°C° 0 mm 4 mps 768 mmHg 68%
    14:00 +21°C° 0 mm 4 mps 767 mmHg 68%
    15:00 +21°C° 0 mm 4 mps 767 mmHg 67%
    16:00 +21°C° 0 mm 4 mps 766 mmHg 70%
    17:00 +20°C° 0 mm 4 mps 766 mmHg 72%
    18:00 +20°C° 0 mm 4 mps 765 mmHg 75%
    19:00 +19°C° 0 mm 4 mps 765 mmHg 78%
    20:00 +17°C° 0 mm 4 mps 765 mmHg 81%
    21:00 +15°C° 0 mm 4 mps 765 mmHg 85%
    22:00 +15°C° 0 mm 4 mps 765 mmHg 85%
    23:00 +15°C° 0 mm 4 mps 765 mmHg 85%

    Day after tomorrow, 28 June, Friday

    Time Temperature Precipitation Wind Pressure Humidity
    00:00 +14°C° 0 mm 4 mps 765 mmHg 86%
    01:00 +14°C° 0 mm 4 mps 764 mmHg 85%
    02:00 +13°C° 0 mm 4 mps 764 mmHg 85%
    03:00 +13°C° 0 mm 4 mps 764 mmHg 84%
    04:00 +13°C° 0 mm 5 mps 763 mmHg 84%
    05:00 +13°C° 0 mm 5 mps 763 mmHg 83%
    06:00 +14°C° 0 mm 6 mps 762 mmHg 83%
    07:00 +15°C° 0 mm 6 mps 762 mmHg 81%
    08:00 +16°C° 0 mm 6 mps 762 mmHg 78%
    09:00 +17°C° 0 mm 6 mps 762 mmHg 76%
    10:00 +17°C° 0 mm 6 mps 761 mmHg 74%
    11:00 +19°C° 0 mm 6 mps 761 mmHg 73%
    12:00 +20°C° 0 mm 6 mps 761 mmHg 72%
    13:00 +20°C° 0.2 mm 6 mps 760 mmHg 73%
    14:00 +20°C° 0.2 mm 5 mps 760 mmHg 74%
    15:00 +20°C° 0.2 mm 5 mps 759 mmHg 75%
    16:00 +20°C° 0.1 mm 5 mps 759 mmHg 77%
    17:00 +20°C° 0.1 mm 4 mps 759 mmHg 78%
    18:00 +20°C° 0.1 mm 4 mps 758 mmHg 79%
    19:00 +19°C° 0 mm 4 mps 758 mmHg 82%
    20:00 +18°C° 0 mm 3 mps 758 mmHg 85%
    21:00 +17°C° 0 mm 3 mps 757 mmHg 87%
    22:00 +17°C° 0 mm 3 mps 757 mmHg 87%
    23:00 +17°C° 0 mm 3 mps 757 mmHg 86%

    29 June, Saturday

    Time Temperature Precipitation Wind Pressure Humidity
    00:00 +17°C° 0 mm 3 mps 756 mmHg 85%
    01:00 +17°C° 0 mm 3 mps 756 mmHg 85%
    02:00 +17°C° 0 mm 3 mps 756 mmHg 85%
    03:00 +17°C° 0 mm 3 mps 755 mmHg 85%
    04:00 +17°C° 0 mm 3 mps 755 mmHg 87%
    05:00 +16°C° 0 mm 2 mps 755 mmHg 90%
    06:00 +16°C° 0 mm 2 mps 755 mmHg 93%
    07:00 +17°C° 0 mm 2 mps 755 mmHg 88%
    08:00 +18°C° 0 mm 2 mps 755 mmHg 84%
    09:00 +19°C° 0 mm 2 mps 755 mmHg 79%
    10:00 +20°C° 0 mm 3 mps 754 mmHg 76%
    11:00 +21°C° 0 mm 3 mps 754 mmHg 72%
    12:00 +21°C° 0 mm 4 mps 754 mmHg 69%
    13:00 +21°C° 0.3 mm 4 mps 753 mmHg 72%
    14:00 +21°C° 0.3 mm 4 mps 753 mmHg 76%
    15:00 +20°C° 0.3 mm 5 mps 752 mmHg 80%
    16:00 +20°C° 0.8 mm 4 mps 752 mmHg 83%
    17:00 +19°C° 0.8 mm 4 mps 752 mmHg 87%
    18:00 +18°C° 0.8 mm 4 mps 751 mmHg 90%
    19:00 +17°C° 0.3 mm 4 mps 752 mmHg 91%
    20:00 +15°C° 0.3 mm 4 mps 752 mmHg 92%
    21:00 +14°C° 0.3 mm 3 mps 752 mmHg 93%
    22:00 +13°C° 0 mm 4 mps 752 mmHg 94%
    23:00 +13°C° 0 mm 4 mps 752 mmHg 96%

    30 June, Sunday

    Time Temperature Precipitation Wind Pressure Humidity
    00:00 +12°C° 0 mm 4 mps 752 mmHg 97%
    01:00 +12°C° 0 mm 4 mps 752 mmHg 96%
    02:00 +12°C° 0 mm 4 mps 752 mmHg 96%
    03:00 +12°C° 0 mm 4 mps 752 mmHg 96%
    04:00 +13°C° 0 mm 4 mps 752 mmHg 95%
    05:00 +13°C° 0 mm 4 mps 752 mmHg 94%
    06:00 +13°C° 0 mm 5 mps 752 mmHg 93%
    07:00 +13°C° 0.1 mm 5 mps 753 mmHg 92%
    08:00 +14°C° 0.1 mm 5 mps 753 mmHg 91%
    09:00 +14°C° 0.1 mm 5 mps 753 mmHg 91%
    10:00 +14°C° 0.2 mm 6 mps 754 mmHg 86%
    11:00 +15°C° 0.2 mm 6 mps 754 mmHg 82%
    12:00 +16°C° 0.2 mm 6 mps 755 mmHg 78%
    13:00 +16°C° 0.1 mm 6 mps 755 mmHg 78%
    14:00 +15°C° 0.1 mm 6 mps 755 mmHg 77%
    15:00 +15°C° 0.1 mm 5 mps 755 mmHg 77%
    16:00 +15°C° 0.1 mm 5 mps 755 mmHg 78%
    17:00 +14°C° 0.1 mm 5 mps 755 mmHg 78%
    18:00 +14°C° 0.1 mm 4 mps 755 mmHg 79%
    19:00 +13°C° 0 mm 4 mps 756 mmHg 79%
    20:00 +12°C° 0 mm 4 mps 756 mmHg 79%
    21:00 +12°C° 0 mm 4 mps 756 mmHg 80%
    22:00 +11°C° 0 mm 4 mps 756 mmHg 82%
    23:00 +11°C° 0 mm 4 mps 756 mmHg 83%

    1 July, Monday

    Time Temperature Precipitation Wind Pressure Humidity
    00:00 +10°C° 0 mm 4 mps 756 mmHg 85%
    01:00 +10°C° 0 mm 4 mps 756 mmHg 85%
    02:00 +9°C° 0 mm 5 mps 756 mmHg 84%
    03:00 +9°C° 0 mm 5 mps 756 mmHg 84%
    04:00 +10°C° 0 mm 5 mps 756 mmHg 83%
    05:00 +12°C° 0 mm 5 mps 756 mmHg 83%
    06:00 +11°C° 0 mm 6 mps 756 mmHg 83%
    07:00 +13°C° 0.1 mm 6 mps 757 mmHg 82%
    08:00 +12°C° 0.1 mm 7 mps 758 mmHg 81%
    09:00 +14°C° 0.1 mm 7 mps 758 mmHg 80%
    10:00 +14°C° 0.1 mm 7 mps 759 mmHg 78%
    11:00 +15°C° 0.1 mm 6 mps 760 mmHg 76%
    12:00 +15°C° 0.1 mm 6 mps 760 mmHg 74%
    13:00 +15°C° 0.1 mm 6 mps 761 mmHg 73%
    14:00 +16°C° 0.1 mm 5 mps 761 mmHg 71%
    15:00 +16°C° 0.1 mm 5 mps 762 mmHg 69%
    16:00 +16°C° 0.1 mm 5 mps 762 mmHg 71%
    17:00 +16°C° 0.1 mm 5 mps 762 mmHg 73%
    18:00 +15°C° 0.1 mm 5 mps 763 mmHg 75%
    19:00 +14°C° 0 mm 4 mps 763 mmHg 81%
    20:00 +12°C° 0 mm 3 mps 764 mmHg 87%
    21:00 +11°C° 0 mm 3 mps 764 mmHg 93%
    22:00 +10°C° 0 mm 2 mps 764 mmHg 94%
    23:00 +9°C° 0 mm 2 mps 764 mmHg 95%
    Show more